Regional Weather Roundup
Issued by NWS

Home | Current Version | Previous Version | Text Only | Print | Product List | Glossary Off
Versions: 1 2 3 4 5 6 7 8 9 10 11 12 13 14 15 16 17 18 19 20 21 22 23 24 25 26 27 28 29 30 31 32 33 34 35 36 37 38 39 40 41 42 43 44 45 46 47 48 49 50

000
ASUS43 KIND 260000
RWRIN

WEATHER ROUNDUP FOR INDIANA
NATIONAL WEATHER SERVICE INDIANAPOLIS IN
800 PM EDT SUN JUN 25 2017

NOTE: "FAIR" INDICATES FEW OR NO CLOUDS BELOW 12,000 FEET WITH NO
SIGNIFICANT WEATHER AND/OR OBSTRUCTIONS TO VISIBILITY.

* - STATION DOES NOT REPORT WEATHER SUCH AS PRECIPITATION OR FOG.

+ - STATION NOT QUALITY CONTROLLED BY THE NATIONAL WEATHER SERVICE.
    USE DATA WITH CAUTION...ESPECIALLY DEWPOINT AND RELATIVE
    HUMIDITY OBSERVATIONS.

INZ001>003-010>013-019-020-260100-
NORTHWEST INDIANA

CITY           SKY/WX    TMP DP  RH WIND       PRES   REMARKS
GARY /AIRPORT/ PTSUNNY   70  43  37 W14G29    30.09R
KNOX *+        CLOUDY    68  34  28 W12G18    30.08R
MICHIGAN CITY+ PTSUNNY   68  46  45 W5        30.08R
MONTICELLO +   MOSUNNY   70  45  39 W13G18    30.10R
6HR MIN TEMP:  70; 6HR MAX TEMP:  74;


$$

LMZ046-743>745-260100-
SOUTHERN LAKE MICHIGAN

STATION/POSITION TIME  TEMP    WIND        PRES    WAVE
                       AIR SEA DIR/SP/G            HT
                 (UTC) (F)     (DEG/KT/KT) (MB)    (FT)
BURNS HARBOR     2340   68     270/ 15/ 17 1018.6R
MICHIGAN CITY    2330   67     250/ 11/ 12   N/A
5NW MICH CITY    2350   67 67  270/ 12/ 17   N/A     2

$$

INZ004-005-014>016-021>024-260100-
NORTH CENTRAL INDIANA

CITY           SKY/WX    TMP DP  RH WIND       PRES   REMARKS
GOSHEN         PTSUNNY   68  43  40 W12       30.07R
6HR MIN TEMP:  67; 6HR MAX TEMP:  72;

PERU/GRISSOM   PTSUNNY   69  47  46 W10       30.08R
6HR MIN TEMP:  69; 6HR MAX TEMP:  73;

SOUTH BEND     PTSUNNY   67  46  47 NW9       30.07R
6HR MIN TEMP:  67; 6HR MAX TEMP:  71;


$$

INZ006>009-017-018-025>027-260100-
NORTHEAST INDIANA

CITY           SKY/WX    TMP DP  RH WIND       PRES   REMARKS
FORT WAYNE     MOSUNNY   70  43  37 W15       30.08R
6HR MIN TEMP:  68; 6HR MAX TEMP:  73;

KENDALLVILLE + PTSUNNY   67  45  44 W7        30.08R

$$

INZ028-029-035-036-043>045-051>053-260100-
WEST CENTRAL INDIANA

CITY           SKY/WX    TMP DP  RH WIND       PRES   REMARKS
LAFAYETTE      SUNNY     69  47  45 W14G22    30.10R
6HR MIN TEMP:  68; 6HR MAX TEMP:  73;

TERRE HAUTE    MOSUNNY   73  46  38 NW7       30.12S
6HR MIN TEMP:  73; 6HR MAX TEMP:  77;


$$

INZ030>032-037>040-046>048-054>057-064-065-260100-
CENTRAL INDIANA

CITY           SKY/WX    TMP DP  RH WIND       PRES   REMARKS
COLUMBUS       SUNNY     73  37  27 W12       30.12S
GREENWOOD *+   SUNNY     73  41  32 W8G22     30.12R
6HR MIN TEMP:  72; 6HR MAX TEMP:  75;

INDIANAPOLIS   MOSUNNY   72  44  36 W14       30.11R
6HR MIN TEMP:  71; 6HR MAX TEMP:  76;

-EAGLE CREEK   MOSUNNY   72  46  39 W9        30.11R
6HR MIN TEMP:  71; 6HR MAX TEMP:  75;

KOKOMO +       PTSUNNY   69  48  47 W12       30.11R
6HR MIN TEMP:  69; 6HR MAX TEMP:  72;

MT COMFORT *+  MOSUNNY   70  46  43 W9        30.11R
SHELBYVILLE    SUNNY     74  42  31 W12G24    30.10R
6HR MIN TEMP:  74; 6HR MAX TEMP:  77;


$$

INZ033-034-041-042-049-050-058-059-260100-
EAST CENTRAL INDIANA

CITY           SKY/WX    TMP DP  RH WIND       PRES   REMARKS
MUNCIE         PTSUNNY   71  48  43 W8        30.10R
6HR MIN TEMP:  69; 6HR MAX TEMP:  73;

RICHMOND +     MOSUNNY   68  46  45 W8        30.11S

$$

INZ060-061-067>069-081>083-085>088-260100-
SOUTHWEST INDIANA

CITY           SKY/WX    TMP DP  RH WIND       PRES   REMARKS
EVANSVILLE     SUNNY     79  46  31 W9G18     30.13S
6HR MIN TEMP:  79; 6HR MAX TEMP:  83;

HUNTINGBURG *+ SUNNY     77  47  34 NW12      30.13R
6HR MIN TEMP:  77; 6HR MAX TEMP:  81;


$$

INZ062-063-066-070>080-084-089>092-260100-
SOUTH CENTRAL AND SOUTHEAST INDIANA

CITY           SKY/WX    TMP DP  RH WIND       PRES   REMARKS
BLOOMINGTON    MOSUNNY   74  42  31 W9        30.12R
6HR MIN TEMP:  74; 6HR MAX TEMP:  78;

MADISON *+     SUNNY     75  41  29 W7        30.13S
SEYMOUR +      SUNNY    N/A N/A N/A NW5       30.11R

$$





USA.gov is the U.S. government's official web portal to all federal, state and local government web resources and services.